When you browse on this site, cookies collect data to enhance your experience and personalize the content and advertising you see.
Visit our Privacy Policy to learn more. By continuing to use the site, you agree to this use of cookies and data.
  • In Hungary
  • List of Countries
  • For 7 days
  • Water Temperature
  • Weather Map
  • News
  • Weather Widgets
  • user-avatar
    Login

    Hourly Weather Jangipur

    Today, 13 November, Wednesday

    Time Temperature Precipitation Wind Pressure Humidity
    00:00 +24°C° 0 mm 1 mps 757 mmHg 57%
    01:00 +24°C° 0 mm 1 mps 757 mmHg 58%
    02:00 +23°C° 0 mm 1 mps 757 mmHg 58%
    03:00 +23°C° 0 mm 1 mps 757 mmHg 59%
    04:00 +23°C° 0 mm 1 mps 757 mmHg 59%
    05:00 +22°C° 0 mm 1 mps 757 mmHg 60%
    06:00 +22°C° 0 mm 1 mps 757 mmHg 61%
    07:00 +24°C° 0 mm 1 mps 758 mmHg 57%
    08:00 +25°C° 0 mm 1 mps 759 mmHg 53%
    09:00 +27°C° 0 mm 1 mps 759 mmHg 49%
    10:00 +28°C° 0 mm 1 mps 759 mmHg 46%
    11:00 +29°C° 0 mm 2 mps 759 mmHg 43%
    12:00 +30°C° 0 mm 2 mps 758 mmHg 39%
    13:00 +31°C° 0 mm 2 mps 758 mmHg 39%
    14:00 +31°C° 0 mm 2 mps 757 mmHg 38%
    15:00 +31°C° 0 mm 1 mps 756 mmHg 37%
    16:00 +30°C° 0 mm 1 mps 757 mmHg 41%
    17:00 +28°C° 0 mm 1 mps 757 mmHg 46%
    18:00 +27°C° 0 mm 1 mps 757 mmHg 50%
    19:00 +26°C° 0 mm 1 mps 757 mmHg 51%
    20:00 +25°C° 0 mm 2 mps 758 mmHg 53%
    21:00 +25°C° 0 mm 2 mps 759 mmHg 54%
    22:00 +24°C° 0 mm 2 mps 759 mmHg 54%
    23:00 +24°C° 0 mm 1 mps 758 mmHg 53%

    Tomorrow, 14 November, Thursday

    Time Temperature Precipitation Wind Pressure Humidity
    00:00 +24°C° 0 mm 1 mps 758 mmHg 53%
    01:00 +23°C° 0 mm 1 mps 758 mmHg 53%
    02:00 +23°C° 0 mm 1 mps 758 mmHg 53%
    03:00 +23°C° 0 mm 1 mps 758 mmHg 54%
    04:00 +23°C° 0 mm 1 mps 758 mmHg 55%
    05:00 +22°C° 0 mm 1 mps 758 mmHg 56%
    06:00 +22°C° 0 mm 1 mps 758 mmHg 57%
    07:00 +24°C° 0 mm 1 mps 759 mmHg 54%
    08:00 +25°C° 0 mm 2 mps 759 mmHg 51%
    09:00 +27°C° 0 mm 2 mps 760 mmHg 49%
    10:00 +28°C° 0 mm 2 mps 759 mmHg 49%
    11:00 +29°C° 0 mm 2 mps 759 mmHg 50%
    12:00 +30°C° 0 mm 2 mps 758 mmHg 50%
    13:00 +31°C° 0 mm 2 mps 757 mmHg 49%
    14:00 +31°C° 0 mm 2 mps 757 mmHg 48%
    15:00 +32°C° 0 mm 2 mps 756 mmHg 47%
    16:00 +30°C° 0 mm 2 mps 756 mmHg 52%
    17:00 +29°C° 0 mm 2 mps 756 mmHg 57%
    18:00 +28°C° 0 mm 2 mps 756 mmHg 62%
    19:00 +27°C° 0 mm 2 mps 757 mmHg 65%
    20:00 +27°C° 0 mm 2 mps 757 mmHg 68%
    21:00 +26°C° 0 mm 1 mps 757 mmHg 70%
    22:00 +26°C° 0 mm 1 mps 757 mmHg 71%
    23:00 +25°C° 0 mm 1 mps 757 mmHg 72%

    Day after tomorrow, 15 November, Friday

    Time Temperature Precipitation Wind Pressure Humidity
    00:00 +25°C° 0 mm 1 mps 757 mmHg 73%
    01:00 +25°C° 0 mm 1 mps 757 mmHg 73%
    02:00 +24°C° 0 mm 1 mps 756 mmHg 73%
    03:00 +24°C° 0 mm 2 mps 756 mmHg 74%
    04:00 +24°C° 0 mm 1 mps 756 mmHg 74%
    05:00 +23°C° 0 mm 1 mps 756 mmHg 75%
    06:00 +23°C° 0 mm 1 mps 757 mmHg 76%
    07:00 +25°C° 0 mm 2 mps 757 mmHg 71%
    08:00 +26°C° 0 mm 2 mps 757 mmHg 66%
    09:00 +27°C° 0 mm 2 mps 758 mmHg 61%
    10:00 +28°C° 0 mm 2 mps 758 mmHg 57%
    11:00 +30°C° 0 mm 2 mps 757 mmHg 53%
    12:00 +31°C° 0 mm 2 mps 757 mmHg 49%
    13:00 +31°C° 0 mm 2 mps 756 mmHg 46%
    14:00 +32°C° 0 mm 2 mps 755 mmHg 43%
    15:00 +32°C° 0 mm 1 mps 755 mmHg 41%
    16:00 +31°C° 0 mm 2 mps 755 mmHg 45%
    17:00 +29°C° 0 mm 1 mps 755 mmHg 49%
    18:00 +28°C° 0 mm 1 mps 755 mmHg 53%
    19:00 +27°C° 0 mm 1 mps 755 mmHg 55%
    20:00 +27°C° 0 mm 1 mps 756 mmHg 58%
    21:00 +26°C° 0 mm 1 mps 756 mmHg 60%
    22:00 +26°C° 0 mm 1 mps 756 mmHg 61%
    23:00 +25°C° 0 mm 1 mps 756 mmHg 62%

    16 November, Saturday

    Time Temperature Precipitation Wind Pressure Humidity
    00:00 +25°C° 0 mm 1 mps 756 mmHg 62%
    01:00 +25°C° 0 mm 1 mps 756 mmHg 63%
    02:00 +24°C° 0 mm 1 mps 755 mmHg 64%
    03:00 +24°C° 0 mm 1 mps 755 mmHg 64%
    04:00 +24°C° 0 mm 1 mps 755 mmHg 66%
    05:00 +23°C° 0 mm 1 mps 756 mmHg 67%
    06:00 +21°C° 0 mm 0 mps 756 mmHg 68%
    07:00 +24°C° 0 mm 1 mps 756 mmHg 63%
    08:00 +26°C° 0 mm 1 mps 757 mmHg 59%
    09:00 +27°C° 0 mm 1 mps 758 mmHg 54%
    10:00 +29°C° 0 mm 1 mps 757 mmHg 51%
    11:00 +30°C° 0 mm 1 mps 757 mmHg 47%
    12:00 +31°C° 0 mm 1 mps 756 mmHg 43%
    13:00 +32°C° 0 mm 1 mps 756 mmHg 40%
    14:00 +32°C° 0 mm 1 mps 755 mmHg 38%
    15:00 +32°C° 0 mm 1 mps 754 mmHg 35%
    16:00 +31°C° 0 mm 1 mps 754 mmHg 39%
    17:00 +29°C° 0 mm 1 mps 754 mmHg 43%
    18:00 +28°C° 0 mm 2 mps 754 mmHg 46%
    19:00 +27°C° 0 mm 1 mps 755 mmHg 47%
    20:00 +26°C° 0 mm 1 mps 756 mmHg 47%
    21:00 +26°C° 0 mm 1 mps 756 mmHg 48%
    22:00 +25°C° 0 mm 1 mps 756 mmHg 50%
    23:00 +25°C° 0 mm 1 mps 756 mmHg 52%

    17 November, Sunday

    Time Temperature Precipitation Wind Pressure Humidity
    00:00 +24°C° 0 mm 1 mps 756 mmHg 54%
    01:00 +24°C° 0 mm 1 mps 756 mmHg 55%
    02:00 +23°C° 0 mm 1 mps 755 mmHg 57%
    03:00 +23°C° 0 mm 1 mps 755 mmHg 58%
    04:00 +23°C° 0 mm 1 mps 755 mmHg 59%
    05:00 +22°C° 0 mm 1 mps 756 mmHg 59%
    06:00 +20°C° 0 mm 0 mps 756 mmHg 60%
    07:00 +22°C° 0 mm 0 mps 756 mmHg 55%
    08:00 +25°C° 0 mm 1 mps 757 mmHg 50%
    09:00 +27°C° 0 mm 1 mps 758 mmHg 46%
    10:00 +28°C° 0 mm 1 mps 757 mmHg 42%
    11:00 +29°C° 0 mm 1 mps 757 mmHg 38%
    12:00 +31°C° 0 mm 1 mps 756 mmHg 35%
    13:00 +31°C° 0 mm 1 mps 756 mmHg 33%
    14:00 +31°C° 0 mm 1 mps 755 mmHg 32%
    15:00 +32°C° 0 mm 2 mps 755 mmHg 31%
    16:00 +30°C° 0 mm 2 mps 755 mmHg 35%
    17:00 +29°C° 0 mm 2 mps 755 mmHg 40%
    18:00 +27°C° 0 mm 2 mps 755 mmHg 44%
    19:00 +26°C° 0 mm 1 mps 755 mmHg 45%
    20:00 +26°C° 0 mm 1 mps 756 mmHg 46%
    21:00 +25°C° 0 mm 1 mps 756 mmHg 48%
    22:00 +25°C° 0 mm 1 mps 756 mmHg 49%
    23:00 +24°C° 0 mm 1 mps 756 mmHg 50%

    18 November, Monday

    Time Temperature Precipitation Wind Pressure Humidity
    00:00 +22°C° 0 mm 0 mps 756 mmHg 51%
    01:00 +22°C° 0 mm 0 mps 756 mmHg 52%
    02:00 +21°C° 0 mm 0 mps 756 mmHg 53%
    03:00 +21°C° 0 mm 0 mps 755 mmHg 54%
    04:00 +23°C° 0 mm 1 mps 756 mmHg 55%
    05:00 +22°C° 0 mm 1 mps 756 mmHg 56%
    06:00 +22°C° 0 mm 1 mps 756 mmHg 57%
    07:00 +24°C° 0 mm 1 mps 757 mmHg 53%
    08:00 +25°C° 0 mm 1 mps 757 mmHg 49%
    09:00 +25°C° 0 mm 0 mps 758 mmHg 46%
    10:00 +28°C° 0 mm 1 mps 758 mmHg 43%
    11:00 +29°C° 0 mm 1 mps 757 mmHg 40%
    12:00 +31°C° 0 mm 1 mps 757 mmHg 38%
    13:00 +31°C° 0 mm 1 mps 756 mmHg 36%
    14:00 +31°C° 0 mm 2 mps 756 mmHg 35%
    15:00 +32°C° 0 mm 2 mps 755 mmHg 33%
    16:00 +30°C° 0 mm 1 mps 755 mmHg 37%
    17:00 +29°C° 0 mm 1 mps 755 mmHg 41%
    18:00 +27°C° 0 mm 1 mps 755 mmHg 45%
    19:00 +27°C° 0 mm 1 mps 756 mmHg 47%
    20:00 +26°C° 0 mm 1 mps 756 mmHg 48%
    21:00 +25°C° 0 mm 1 mps 757 mmHg 50%
    22:00 +25°C° 0 mm 1 mps 757 mmHg 51%
    23:00 +24°C° 0 mm 1 mps 756 mmHg 53%
    Show more